Tracking 23762 objects as of 22-Oct-2021
HD Live streaming from Space Station
objects crossing your sky now

BEIDOU 3M8

Track BEIDOU 3M8 now!
BEIDOU 3M8 is classified as:


NORAD ID: 43246
Int'l Code: 2018-029B
Perigee: 21,526.7 km
Apogee: 21,543.3 km
Inclination: 55.3 °
Period: 773.2 minutes
Semi major axis: 27905 km
RCS: Unknown
Launch date: March 29, 2018
Source: People's Republic of China (PRC)
Launch site: Xichang Space Center, China (XSC)
aabbcc
Your satellite tracking list
Your tracking list is empty




NASA's NSSDC Master Catalog

Two Line Element Set (TLE):
1 43246U 18029B   21295.51758382 -.00000105  00000-0  10000-3 0  9998
2 43246  55.2901 358.6089 0002988 341.3113  27.1068  1.86232949 24256
Source of the keplerian elements: AFSPC